sat.trackr.live / text

‹ back to catalog

STARLINK-11267 [DTC]

NORAD 60994 · 2024-158E

PAYLOAD ACTIVE UNKNOWN

§ Identity

Operator
Country
US
Launch date
2024-09-05
Launch site
AFETR
Launch vehicle
Mass (kg)
RCS (m²)

Purposes: comms

External: N2YO · Heavens-Above · Gunter

§ Orbital elements

Epoch: 2026-09-21T13:20:50.089920Z

Period
91.74 min
Inclination
53.1609°
Eccentricity
0.0000843
Mean motion
15.69708872 rev/d
Perigee alt
359.2 km
Apogee alt
360.3 km
Semi-major
6,737.9 km
B*
7.1934e-6
RAAN
36.0156°
Arg perigee
92.1724°
Mean anomaly
267.9391°
Rev number
11,835

§ Raw data

STARLINK-11267 [DTC]1 60994U 24158E   26264.55613530  .00000283  00000+0  71934-5 0  99972 60994  53.1609  36.0156 0000843  92.1724 267.9391 15.69708872118353

JSON: /api/v1/satellites/60994 · /tle

For live sub-satellite position, see the globe view (requires WebGL).

§ Visibility from observer

Set your observer location to see the next 7 days of passes ≥ 10°. The values pass through the URL so the page stays shareable.

No JS? Fill the form by hand. The geolocation button needs JavaScript.